Cotulla, TX

1:32 PM CDT on March 23, 2017 (GMT -0500)
Cotulla-La Salle County

Weather History for KCOT - January, 2013

Change the Weather History Date:

Thursday, January 24, 2013

  Actual Average Record
Temperature  
Mean Temperature 70 °F -  
Max Temperature 84 °F 66 °F 91 °F (2017)
Min Temperature 57 °F 44 °F 28 °F (2003)
Cooling Degree Days 6    
Growing Degree Days 20 (Base 50)    
Moisture  
Dew Point 58 °F    
Average Humidity 77    
Maximum Humidity 100    
Minimum Humidity 35    
Precipitation  
Precipitation 0.00 in - - ()
Sea Level Pressure  
Sea Level Pressure 30.18 in    
Wind  
Wind Speed 5 mph (SSE)    
Max Wind Speed 9 mph    
Max Gust Speed -    
Visibility 7 miles    
Events Fog    
Averages and records for this station are not official NWS values.
T = Trace of Precipitation, MM = Missing Value Source: NWS Daily Summary

Daily Weather History Graph

Daily Weather History Graph

Search for Another Location

Airport or City:

Trip Planner

Search our weather history database for the weather conditions in past years. The results will help you decide how hot, cold, wet, or windy it might be!

Date:

Astronomy

Jan. 24, 2013 Rise Set
Actual Time 7:28 AM CST 6:10 PM CST
Civil Twilight 7:03 AM CST 6:35 PM CST
Nautical Twilight 6:34 AM CST 7:03 PM CST
Astronomical Twilight 6:06 AM CST 7:31 PM CST
Moon 4:16 PM CST (1/24) 5:23 AM CST (1/24)
Length of Visible Light 11h 32m
Length of Day
10h 42m
Waxing Gibbous, 94% of the Moon is Illuminated
Jan 24
Waxing Gibbous
Jan 26
Full
Feb 3
Last Quarter
Feb 10
New
Feb 17
First Quarter

Hourly Weather History & Observations

Time (CST) Temp. Heat Index Dew Point Humidity Pressure Visibility Wind Dir Wind Speed Gust Speed Precip Events Conditions
12:53 AM 62.1 °F - 59.0 °F 90% 30.22 in 10.0 mi SE 5.8 mph - N/A   Clear
1:53 AM 61.0 °F - 59.0 °F 93% 30.22 in 10.0 mi SE 4.6 mph - N/A   Clear
2:53 AM 60.1 °F - 59.0 °F 96% 30.21 in 8.0 mi SE 4.6 mph - N/A   Clear
3:53 AM 59.0 °F - 57.9 °F 96% 30.19 in 4.0 mi SSE 4.6 mph - N/A   Clear
4:19 AM 57.2 °F - 57.2 °F 100% 30.20 in 2.0 mi SSE 3.5 mph - N/A   Clear
4:23 AM 57.2 °F - 57.2 °F 100% 30.20 in 1.0 mi SSE 3.5 mph - N/A   Mist
4:27 AM 57.2 °F - 57.2 °F 100% 30.21 in 0.5 mi SSE 3.5 mph - N/A Fog Fog
4:49 AM 57.2 °F - 57.2 °F 100% 30.21 in 0.2 mi Calm Calm - N/A Fog Fog
4:53 AM 57.9 °F - 57.9 °F 100% 30.20 in 0.2 mi Calm Calm - N/A Fog Fog
5:28 AM 59.0 °F - 59.0 °F 100% 30.22 in 0.5 mi SE 3.5 mph - N/A Fog Fog
5:35 AM 59.0 °F - 59.0 °F 100% 30.22 in 2.0 mi SE 3.5 mph - N/A   Overcast
5:42 AM 59.0 °F - 59.0 °F 100% 30.22 in 4.0 mi SE 3.5 mph - N/A   Overcast
5:53 AM 60.1 °F - 60.1 °F 100% 30.21 in 5.0 mi SSE 4.6 mph - N/A   Overcast
6:53 AM 61.0 °F - 60.1 °F 97% 30.22 in 6.0 mi Calm Calm - N/A   Overcast
7:53 AM 61.0 °F - 60.1 °F 97% 30.24 in 5.0 mi SSE 4.6 mph - N/A   Overcast
8:53 AM 62.1 °F - 61.0 °F 96% 30.25 in 6.0 mi SSE 3.5 mph - N/A   Overcast
9:53 AM 64.9 °F - 61.0 °F 87% 30.26 in 10.0 mi South 5.8 mph - N/A   Overcast
10:27 AM 66.2 °F - 60.8 °F 83% 30.28 in 10.0 mi South 5.8 mph - N/A   Mostly Cloudy
10:43 AM 69.8 °F - 60.8 °F 73% 30.27 in 10.0 mi South 5.8 mph - N/A   Scattered Clouds
10:53 AM 70.0 °F - 61.0 °F 73% 30.26 in 10.0 mi South 6.9 mph - N/A   Partly Cloudy
11:53 AM 77.0 °F - 60.1 °F 56% 30.21 in 10.0 mi South 9.2 mph - N/A   Clear
12:53 PM 80.1 °F 80.6 °F 57.9 °F 47% 30.18 in 10.0 mi SW 8.1 mph - N/A   Clear
1:53 PM 82.0 °F 81.6 °F 55.9 °F 41% 30.14 in 10.0 mi SSW 8.1 mph - N/A   Clear
2:53 PM 82.9 °F 81.9 °F 54.0 °F 37% 30.12 in 10.0 mi Variable 3.5 mph - N/A   Clear
3:53 PM 84.0 °F 82.6 °F 54.0 °F 35% 30.09 in 10.0 mi Calm Calm - N/A   Clear
4:53 PM 82.9 °F 81.9 °F 54.0 °F 37% 30.08 in 10.0 mi SE 8.1 mph - N/A   Clear
5:53 PM 81.0 °F 80.4 °F 53.1 °F 38% 30.08 in 10.0 mi SSE 8.1 mph - N/A   Clear
6:53 PM 73.9 °F - 54.0 °F 50% 30.09 in 10.0 mi SE 4.6 mph - N/A   Clear
7:53 PM 73.0 °F - 54.0 °F 51% 30.10 in 10.0 mi SSE 6.9 mph - N/A   Clear
8:53 PM 71.1 °F - 55.0 °F 57% 30.12 in 10.0 mi SSE 4.6 mph - N/A   Clear
9:53 PM 69.1 °F - 55.9 °F 63% 30.12 in 10.0 mi SSE 5.8 mph - N/A   Clear
10:53 PM 64.9 °F - 55.0 °F 70% 30.12 in 10.0 mi SE 5.8 mph - N/A   Clear
11:53 PM 64.0 °F - 57.0 °F 78% 30.12 in 10.0 mi SE 6.9 mph - N/A   Clear